{"data":{"norad_id":45230,"intl_designator":"2020-012BE","name":"STARLINK-1227","alt_names":[],"object_type":"PAYLOAD","status":"ACTIVE","operator":null,"country":"US","launch_date":"2020-02-17","launch_site_code":"AFETR","launch_vehicle":null,"mission":null,"orbit_class":"UNKNOWN","rcs_meters":null,"size_class":null,"mass_kg":null,"dimensions":null,"purposes":["comms"],"wikipedia_slug":null,"has_3d_model":false,"image_url":null,"decayed_at":null,"tle_current":{"epoch":"2026-05-25T00:05:45.407328Z","epoch_age_seconds":78226,"freshness":"FRESH","line1":"1 45230U 20012BE  26145.00399777  .00043747  00000+0  10012-2 0  9999","line2":"2 45230  53.1559   0.2153 0003329 155.8526 204.2637 15.42388838347271","mean_motion":15.42388838,"eccentricity":0.0003329,"inclination_deg":53.1559,"raan_deg":0.2153,"arg_perigee_deg":155.8526,"mean_anomaly_deg":204.2637,"bstar":0.0010012,"rev_number":34727,"period_min":93.361671487926,"perigee_km":436.7918315684,"apogee_km":441.33072218114,"semimajor_km":6817.1982768748,"source":"CELESTRAK","updated_at":"2026-05-25T13:38:16.385705Z"}}}